SWA1001 KBUR-KSJC

Flight info

Callsign SWA1001
Flight time 0h 47m
Altitude 36000
Route OROSZ2 COREZ MAKRS TROXX SILCN6
Aircraft B737/M-SADE2E3GIJ4RWZ/LB1D1

Departure

Time 2026-05-05 18:27
Airport Hollywood Burbank/Bob Hope Airport (KBUR)

Arrival

Time 2026-05-05 19:15
Airport Norman Y. Mineta San Jose International Airport (KSJC)
Time Latitude Longitude Altitude Speed Heading
2026-05-05 17:44 34.19676 -118.35285 690 ft 0 kts 181°
2026-05-05 18:07 34.19678 -118.35285 694 ft 1 kts 181°
2026-05-05 18:08 34.19695 -118.35284 688 ft 3 kts 197°
2026-05-05 18:08 34.19712 -118.35273 693 ft 3 kts 231°
2026-05-05 18:08 34.19719 -118.35255 685 ft 2 kts 269°
2026-05-05 18:08 34.19719 -118.35252 685 ft 1 kts 271°
2026-05-05 18:14 34.19719 -118.35253 685 ft 1 kts 271°
2026-05-05 18:14 34.19719 -118.35270 693 ft 4 kts 270°
2026-05-05 18:15 34.19720 -118.35311 690 ft 6 kts 270°
2026-05-05 18:15 34.19720 -118.35343 692 ft 0 kts 273°
2026-05-05 18:16 34.19722 -118.35414 693 ft 16 kts 271°
2026-05-05 18:16 34.19738 -118.35532 690 ft 12 kts 315°
2026-05-05 18:16 34.19777 -118.35535 694 ft 7 kts
2026-05-05 18:16 34.19878 -118.35538 694 ft 20 kts 351°
2026-05-05 18:17 34.20032 -118.35579 699 ft 23 kts 347°
2026-05-05 18:17 34.20174 -118.35619 714 ft 20 kts 347°
2026-05-05 18:17 34.20301 -118.35653 715 ft 18 kts 347°
2026-05-05 18:17 34.20412 -118.35684 721 ft 15 kts 347°
2026-05-05 18:18 34.20508 -118.35711 723 ft 13 kts 347°
2026-05-05 18:18 34.20589 -118.35734 729 ft 11 kts 347°
2026-05-05 18:18 34.20656 -118.35753 731 ft 9 kts 347°
2026-05-05 18:18 34.20713 -118.35768 735 ft 9 kts 348°
2026-05-05 18:19 34.20795 -118.35790 743 ft 14 kts 348°
2026-05-05 18:19 34.20908 -118.35813 749 ft 17 kts
2026-05-05 18:19 34.21017 -118.35787 754 ft 14 kts 349°
2026-05-05 18:19 34.21092 -118.35814 762 ft 5 kts 324°
2026-05-05 18:20 34.21094 -118.35817 762 ft 0 kts 311°
2026-05-05 18:25 34.21121 -118.35854 766 ft 13 kts 309°
2026-05-05 18:26 34.21197 -118.35965 772 ft 18 kts 310°
2026-05-05 18:26 34.21184 -118.36037 772 ft 7 kts 188°
2026-05-05 18:26 34.20967 -118.35974 757 ft 73 kts 166°
2026-05-05 18:26 34.20208 -118.35762 712 ft 147 kts 167°
2026-05-05 18:27 34.19060 -118.35449 937 ft 182 kts 167°
2026-05-05 18:27 34.17765 -118.35289 1704 ft 193 kts 189°
2026-05-05 18:27 34.16541 -118.35962 2536 ft 198 kts 220°
2026-05-05 18:27 34.15568 -118.37128 3389 ft 199 kts 234°
2026-05-05 18:28 34.14838 -118.40733 3997 ft 258 kts 283°
2026-05-05 18:28 34.15708 -118.42612 4018 ft 261 kts 316°
2026-05-05 18:28 34.17131 -118.43985 4002 ft 264 kts 323°
2026-05-05 18:29 34.18062 -118.44816 3999 ft 263 kts 323°
2026-05-05 18:29 34.19512 -118.46139 3993 ft 261 kts 322°
2026-05-05 18:29 34.20939 -118.47494 3990 ft 260 kts 321°
2026-05-05 18:29 34.22336 -118.48866 3992 ft 258 kts 320°
2026-05-05 18:30 34.23714 -118.50252 3988 ft 257 kts 320°
2026-05-05 18:30 34.25072 -118.51643 3992 ft 256 kts 319°
2026-05-05 18:30 34.26437 -118.53055 4114 ft 263 kts 319°
2026-05-05 18:30 34.27838 -118.54515 5067 ft 265 kts 319°
2026-05-05 18:31 34.29212 -118.55952 6441 ft 260 kts 320°
2026-05-05 18:31 34.30591 -118.57398 7471 ft 265 kts 320°
2026-05-05 18:31 34.31997 -118.58874 8542 ft 270 kts 320°
2026-05-05 18:31 34.33434 -118.60386 9571 ft 275 kts 319°
2026-05-05 18:32 34.34888 -118.61917 10558 ft 282 kts 319°
2026-05-05 18:32 34.36442 -118.63552 10920 ft 311 kts 320°
2026-05-05 18:32 34.38296 -118.65099 11253 ft 336 kts 333°
2026-05-05 18:32 34.40447 -118.66278 12066 ft 343 kts 336°
2026-05-05 18:33 34.42649 -118.67448 13008 ft 348 kts 334°
2026-05-05 18:33 34.44806 -118.68814 13921 ft 353 kts 330°
2026-05-05 18:33 34.46941 -118.70330 14747 ft 357 kts 329°
2026-05-05 18:33 34.49082 -118.71889 15585 ft 361 kts 329°
2026-05-05 18:34 34.51252 -118.73459 16432 ft 365 kts 329°
2026-05-05 18:34 34.53454 -118.75030 17290 ft 369 kts 329°
2026-05-05 18:34 34.55686 -118.76611 18089 ft 374 kts 329°
2026-05-05 18:34 34.57940 -118.78205 18864 ft 377 kts 329°
2026-05-05 18:35 34.60210 -118.79812 19713 ft 378 kts 330°
2026-05-05 18:35 34.62497 -118.81432 20418 ft 383 kts 330°
2026-05-05 18:35 34.64808 -118.83070 21216 ft 385 kts 330°
2026-05-05 18:35 34.67106 -118.84701 21962 ft 389 kts 330°
2026-05-05 18:36 34.69460 -118.86372 22676 ft 393 kts 331°
2026-05-05 18:36 34.71828 -118.88055 23434 ft 395 kts 331°
2026-05-05 18:36 34.74208 -118.89747 24072 ft 398 kts 331°
2026-05-05 18:36 34.76613 -118.91459 24626 ft 402 kts 332°
2026-05-05 18:37 34.79046 -118.93191 25155 ft 406 kts 332°
2026-05-05 18:37 34.81491 -118.94934 25715 ft 409 kts 332°
2026-05-05 18:37 34.83953 -118.96689 26263 ft 412 kts 332°
2026-05-05 18:37 34.86435 -118.98461 26803 ft 415 kts 332°
2026-05-05 18:38 34.88937 -119.00249 27285 ft 418 kts 333°
2026-05-05 18:38 34.91457 -119.02050 27782 ft 422 kts 333°
2026-05-05 18:38 34.93998 -119.03868 28236 ft 425 kts 333°
2026-05-05 18:38 34.96529 -119.05679 28692 ft 428 kts 333°
2026-05-05 18:39 34.99142 -119.07550 29188 ft 431 kts 333°
2026-05-05 18:39 35.01706 -119.09386 29618 ft 435 kts 334°
2026-05-05 18:39 35.04356 -119.11284 30035 ft 438 kts 334°
2026-05-05 18:39 35.06956 -119.13149 30421 ft 440 kts 334°
2026-05-05 18:40 35.09624 -119.15066 30888 ft 439 kts 334°
2026-05-05 18:40 35.12224 -119.16936 31328 ft 439 kts 334°
2026-05-05 18:40 35.14859 -119.18832 31717 ft 440 kts 334°
2026-05-05 18:40 35.17501 -119.20735 32095 ft 441 kts 334°
2026-05-05 18:41 35.20150 -119.22643 32504 ft 442 kts 334°
2026-05-05 18:41 35.22800 -119.24553 32902 ft 442 kts 333°
2026-05-05 18:41 35.25448 -119.26464 33269 ft 443 kts 333°
2026-05-05 18:41 35.28107 -119.28384 33652 ft 444 kts 333°
2026-05-05 18:42 35.30770 -119.30308 34048 ft 444 kts 333°
2026-05-05 18:42 35.33428 -119.32231 34392 ft 444 kts 333°
2026-05-05 18:42 35.36084 -119.34154 34743 ft 443 kts 333°
2026-05-05 18:42 35.38739 -119.36078 35071 ft 443 kts 333°
2026-05-05 18:43 35.41398 -119.38006 35386 ft 443 kts 333°
2026-05-05 18:43 35.44042 -119.39924 35711 ft 442 kts 332°
2026-05-05 18:43 35.46690 -119.41846 36016 ft 442 kts 332°
2026-05-05 18:43 35.49352 -119.43779 36037 ft 447 kts 332°
2026-05-05 18:44 35.53604 -119.47400 36043 ft 453 kts 316°
2026-05-05 18:44 35.55979 -119.51635 36056 ft 458 kts 298°
2026-05-05 18:44 35.56937 -119.55394 36070 ft 464 kts 284°
2026-05-05 18:45 35.58048 -119.63216 36065 ft 466 kts 283°
2026-05-05 18:45 35.58930 -119.69762 36053 ft 466 kts 283°
2026-05-05 18:46 35.60046 -119.77601 36057 ft 466 kts 284°
2026-05-05 18:46 35.61197 -119.85433 36062 ft 466 kts 284°
2026-05-05 18:47 35.62353 -119.93281 36069 ft 466 kts 284°
2026-05-05 18:47 35.63502 -120.01134 36062 ft 467 kts 284°
2026-05-05 18:48 35.64647 -120.09008 36061 ft 468 kts 284°
2026-05-05 18:48 35.65778 -120.16827 36071 ft 469 kts 284°
2026-05-05 18:49 35.66916 -120.24728 36071 ft 469 kts 284°
2026-05-05 18:49 35.68213 -120.32584 36083 ft 464 kts 293°
2026-05-05 18:50 35.70935 -120.39650 36090 ft 452 kts 308°
2026-05-05 18:50 35.74418 -120.46103 36097 ft 453 kts 309°
2026-05-05 18:51 35.77896 -120.52537 36095 ft 455 kts 309°
2026-05-05 18:51 35.81375 -120.59080 36097 ft 457 kts 309°
2026-05-05 18:52 35.84849 -120.65670 36093 ft 459 kts 309°
2026-05-05 18:52 35.88328 -120.72288 36093 ft 461 kts 309°
2026-05-05 18:53 35.91823 -120.78942 35756 ft 467 kts 309°
2026-05-05 18:53 35.93577 -120.82283 35069 ft 471 kts 310°
2026-05-05 18:53 35.95376 -120.85722 34296 ft 471 kts 311°
2026-05-05 18:54 35.97155 -120.89120 33344 ft 473 kts 311°
2026-05-05 18:54 35.98939 -120.92530 32443 ft 472 kts 311°
2026-05-05 18:54 36.00748 -120.95798 32089 ft 454 kts 317°
2026-05-05 18:54 36.02937 -120.98463 31395 ft 434 kts 330°
2026-05-05 18:55 36.05322 -121.00680 30838 ft 426 kts 332°
2026-05-05 18:55 36.07708 -121.02847 30228 ft 422 kts 331°
2026-05-05 18:55 36.10056 -121.04992 29541 ft 418 kts 331°
2026-05-05 18:55 36.12368 -121.07137 28934 ft 412 kts 330°
2026-05-05 18:56 36.14641 -121.09275 28324 ft 406 kts 330°
2026-05-05 18:56 36.16872 -121.11392 27757 ft 401 kts 329°
2026-05-05 18:56 36.19072 -121.13488 27178 ft 396 kts 329°
2026-05-05 18:56 36.21247 -121.15565 26608 ft 392 kts 329°
2026-05-05 18:57 36.23374 -121.17597 26062 ft 388 kts 329°
2026-05-05 18:57 36.25503 -121.19633 25518 ft 385 kts 328°
2026-05-05 18:57 36.27615 -121.21653 24980 ft 382 kts 328°
2026-05-05 18:57 36.29709 -121.23657 24447 ft 379 kts 328°
2026-05-05 18:58 36.31791 -121.25651 23922 ft 376 kts 328°
2026-05-05 18:58 36.33863 -121.27636 23311 ft 375 kts 328°
2026-05-05 18:58 36.35912 -121.29603 22731 ft 371 kts 327°
2026-05-05 18:58 36.37946 -121.31561 22186 ft 367 kts 327°
2026-05-05 18:59 36.39951 -121.33493 21662 ft 363 kts 327°
2026-05-05 18:59 36.41937 -121.35408 21140 ft 359 kts 327°
2026-05-05 18:59 36.43903 -121.37305 20631 ft 356 kts 327°
2026-05-05 18:59 36.45848 -121.39182 20129 ft 353 kts 327°
2026-05-05 19:00 36.47751 -121.41019 19641 ft 350 kts 326°
2026-05-05 19:00 36.49691 -121.42824 19142 ft 345 kts 332°
2026-05-05 19:00 36.51838 -121.44039 18695 ft 336 kts 343°
2026-05-05 19:00 36.54039 -121.44960 18220 ft 333 kts 344°
2026-05-05 19:01 36.56238 -121.45843 17712 ft 331 kts 345°
2026-05-05 19:01 36.58415 -121.46723 17246 ft 327 kts 344°
2026-05-05 19:01 36.60565 -121.47606 16801 ft 324 kts 344°
2026-05-05 19:01 36.62693 -121.48492 16364 ft 321 kts 344°
2026-05-05 19:02 36.64807 -121.49379 15880 ft 321 kts 344°
2026-05-05 19:02 36.66921 -121.50270 15439 ft 319 kts 344°
2026-05-05 19:02 36.69011 -121.51154 15008 ft 318 kts 344°
2026-05-05 19:02 36.71112 -121.52043 14568 ft 317 kts 344°
2026-05-05 19:03 36.73194 -121.52924 14135 ft 316 kts 344°
2026-05-05 19:03 36.75275 -121.53807 13697 ft 316 kts 344°
2026-05-05 19:03 36.77327 -121.54677 13228 ft 315 kts 344°
2026-05-05 19:03 36.79387 -121.55553 12783 ft 311 kts 344°
2026-05-05 19:04 36.81421 -121.56418 12346 ft 308 kts 344°
2026-05-05 19:04 36.83439 -121.57277 11947 ft 304 kts 344°
2026-05-05 19:04 36.85435 -121.58126 11530 ft 302 kts 344°
2026-05-05 19:04 36.87420 -121.58970 11123 ft 300 kts 344°
2026-05-05 19:05 36.89386 -121.59808 10704 ft 296 kts 344°
2026-05-05 19:05 36.91320 -121.60633 10334 ft 291 kts 345°
2026-05-05 19:05 36.93216 -121.61441 9942 ft 287 kts 345°
2026-05-05 19:05 36.95048 -121.62220 9941 ft 268 kts 345°
2026-05-05 19:06 36.96768 -121.62951 9825 ft 255 kts 345°
2026-05-05 19:06 36.98441 -121.63659 9411 ft 254 kts 345°
2026-05-05 19:06 37.00113 -121.64366 9029 ft 253 kts 344°
2026-05-05 19:06 37.01537 -121.64970 8725 ft 253 kts 344°
2026-05-05 19:07 37.03200 -121.65675 8329 ft 252 kts 343°
2026-05-05 19:07 37.04862 -121.66381 7955 ft 253 kts 343°
2026-05-05 19:07 37.06526 -121.67088 7626 ft 252 kts 343°
2026-05-05 19:07 37.08178 -121.67792 7304 ft 251 kts 343°
2026-05-05 19:08 37.09830 -121.68495 6987 ft 251 kts 342°
2026-05-05 19:08 37.11490 -121.69201 6660 ft 251 kts 342°
2026-05-05 19:08 37.13135 -121.69904 6324 ft 250 kts 342°
2026-05-05 19:08 37.14784 -121.70606 5703 ft 252 kts 341°
2026-05-05 19:09 37.16427 -121.71392 5075 ft 253 kts 330°
2026-05-05 19:09 37.17808 -121.72760 4502 ft 252 kts 319°
2026-05-05 19:09 37.19083 -121.74147 4301 ft 237 kts 319°
2026-05-05 19:09 37.20282 -121.75451 4024 ft 224 kts 319°
2026-05-05 19:10 37.21423 -121.76700 3722 ft 212 kts 319°
2026-05-05 19:10 37.22507 -121.77890 3460 ft 200 kts 318°
2026-05-05 19:10 37.23522 -121.79005 3207 ft 189 kts 318°
2026-05-05 19:10 37.24489 -121.80066 2959 ft 181 kts 318°
2026-05-05 19:11 37.25416 -121.81085 2723 ft 175 kts 318°
2026-05-05 19:11 37.26336 -121.82093 2503 ft 176 kts 318°
2026-05-05 19:11 37.27256 -121.83104 2270 ft 173 kts 318°
2026-05-05 19:11 37.28139 -121.84072 2030 ft 164 kts 318°
2026-05-05 19:12 37.28980 -121.84995 1809 ft 156 kts 318°
2026-05-05 19:12 37.29777 -121.85869 1615 ft 150 kts 318°
2026-05-05 19:12 37.30537 -121.86703 1476 ft 142 kts 319°
2026-05-05 19:12 37.31277 -121.87514 1243 ft 139 kts 319°
2026-05-05 19:13 37.32000 -121.88307 1055 ft 135 kts 319°
2026-05-05 19:13 37.32708 -121.89088 865 ft 136 kts 318°
2026-05-05 19:13 37.33425 -121.89874 666 ft 137 kts 319°
2026-05-05 19:13 37.34136 -121.90645 465 ft 139 kts 319°
2026-05-05 19:14 37.34896 -121.91480 276 ft 145 kts 319°
2026-05-05 19:14 37.35649 -121.92308 102 ft 140 kts 319°
2026-05-05 19:14 37.36315 -121.93038 58 ft 112 kts 319°
2026-05-05 19:14 37.36745 -121.93512 62 ft 54 kts 319°
2026-05-05 19:15 37.36979 -121.93480 60 ft 33 kts 50°
2026-05-05 19:15 37.37075 -121.93318 57 ft 16 kts 84°
2026-05-05 19:15 37.37023 -121.93237 53 ft 12 kts 138°
2026-05-05 19:15 37.36963 -121.93171 55 ft 11 kts 139°
2026-05-05 19:16 37.36896 -121.93099 56 ft 14 kts 139°
2026-05-05 19:16 37.36809 -121.93003 56 ft 19 kts 138°
2026-05-05 19:16 37.36699 -121.92882 54 ft 23 kts 139°
2026-05-05 19:16 37.36570 -121.92741 53 ft 25 kts 139°
2026-05-05 19:17 37.36534 -121.92644 58 ft 8 kts 54°
2026-05-05 19:17 37.36559 -121.92606 57 ft 1 kts 47°
2026-05-05 19:17 37.36560 -121.92605 57 ft 0 kts 47°